| time (UTC) | temp F | wind direction | speed MPH | gust MPH | rain 1hr in | rain 24hr in | rain mn in | humidity % | barometer mb |
| 20260904171100 | 76 | 145 | 24.0 | 36.0 | 0.00 | 0.00 | 0.00 | 29 | 1001.6 |
| 20260904170600 | 77 | 183 | 23.0 | 31.0 | 0.00 | 0.00 | 0.00 | 27 | 1001.6 |
| 20260904170100 | 76 | 165 | 25.0 | 39.0 | 0.00 | 0.00 | 0.00 | 29 | 1001.5 |
| 20260904165600 | 76 | 158 | 26.0 | 39.0 | 0.00 | 0.00 | 0.00 | 28 | 1001.6 |
| 20260904165100 | 77 | 138 | 24.0 | 36.0 | 0.00 | 0.00 | 0.00 | 28 | 1001.6 |
| 20260904164558 | 77 | 182 | 21.0 | 29.0 | 0.00 | 0.00 | 0.00 | 27 | 1001.7 |
| 20260904164057 | 77 | 180 | 20.0 | 31.0 | 0.00 | 0.00 | 0.00 | 26 | 1001.7 |
| 20260904163557 | 76 | 171 | 20.0 | 31.0 | 0.00 | 0.00 | 0.00 | 27 | 1001.6 |
| 20260904163100 | 76 | 132 | 21.0 | 32.0 | 0.00 | 0.00 | 0.00 | 26 | 1001.8 |
| 20260904162558 | 76 | 182 | 23.0 | 31.0 | 0.00 | 0.00 | 0.00 | 24 | 1001.8 |
| 20260904162057 | 76 | 159 | 18.0 | 28.0 | 0.00 | 0.00 | 0.00 | 24 | 1001.8 |
| 20260904161609 | 76 | 165 | 22.0 | 28.0 | 0.00 | 0.00 | 0.00 | 24 | 1001.8 |
| 20260904161056 | 76 | 165 | 19.0 | 28.0 | 0.00 | 0.00 | 0.00 | 24 | 1001.8 |
| 20260904160556 | 76 | 171 | 14.0 | 29.0 | 0.00 | 0.00 | 0.00 | 25 | 1001.7 |
| 20260904160100 | 75 | 168 | 21.0 | 29.0 | 0.00 | 0.00 | 0.00 | 24 | 1001.8 |
| 20260904155555 | 75 | 155 | 18.0 | 29.0 | 0.00 | 0.00 | 0.00 | 25 | 1001.8 |
| 20260904155054 | 75 | 168 | 18.0 | 27.0 | 0.00 | 0.00 | 0.00 | 28 | 1001.7 |
| 20260904154553 | 75 | 181 | 19.0 | 27.0 | 0.00 | 0.00 | 0.00 | 24 | 1001.8 |
| 20260904154052 | 75 | 145 | 17.0 | 24.0 | 0.00 | 0.00 | 0.00 | 27 | 1001.7 |
| 20260904153551 | 74 | 156 | 16.0 | 23.0 | 0.00 | 0.00 | 0.00 | 28 | 1001.7 |
| 20260904153049 | 73 | 161 | 13.0 | 26.0 | 0.00 | 0.00 | 0.00 | 28 | 1001.8 |
| 20260904152549 | 73 | 136 | 16.0 | 30.0 | 0.00 | 0.00 | 0.00 | 28 | 1001.8 |
| 20260904152049 | 73 | 165 | 18.0 | 29.0 | 0.00 | 0.00 | 0.00 | 27 | 1001.9 |
| 20260904151550 | 73 | 156 | 16.0 | 26.0 | 0.00 | 0.00 | 0.00 | 26 | 1001.8 |
| 20260904151046 | 73 | 174 | 18.0 | 31.0 | 0.00 | 0.00 | 0.00 | 27 | 1001.9 |
| 20260904150546 | 72 | 163 | 23.0 | 31.0 | 0.00 | 0.00 | 0.00 | 27 | 1001.8 |
| 20260904150046 | 71 | 138 | 17.0 | 25.0 | 0.00 | 0.00 | 0.00 | 31 | 1001.9 |
| 20260904145546 | 70 | 143 | 15.0 | 24.0 | 0.00 | 0.00 | 0.00 | 30 | 1001.9 |
| 20260904145046 | 70 | 121 | 17.0 | 24.0 | 0.00 | 0.00 | 0.00 | 34 | 1002.0 |
| 20260904144602 | 69 | 150 | 14.0 | 19.0 | 0.00 | 0.00 | 0.00 | 34 | 1001.9 |
| 20260904144044 | 69 | 145 | 12.0 | 24.0 | 0.00 | 0.00 | 0.00 | 34 | 1001.8 |
| 20260904143544 | 68 | 134 | 14.0 | 24.0 | 0.00 | 0.00 | 0.00 | 34 | 1001.9 |
| 20260904143055 | 68 | 143 | 15.0 | 24.0 | 0.00 | 0.00 | 0.00 | 34 | 1001.8 |
| 20260904142544 | 67 | 135 | 17.0 | 24.0 | 0.00 | 0.00 | 0.00 | 33 | 1001.9 |
| 20260904142042 | 67 | 116 | 13.0 | 18.0 | 0.00 | 0.00 | 0.00 | 34 | 1002.0 |
| 20260904141542 | 67 | 122 | 12.0 | 20.0 | 0.00 | 0.00 | 0.00 | 34 | 1001.9 |
| 20260904141044 | 67 | 134 | 11.0 | 21.0 | 0.00 | 0.00 | 0.00 | 34 | 1001.9 |
| 20260904140543 | 67 | 130 | 15.0 | 19.0 | 0.00 | 0.00 | 0.00 | 33 | 1001.9 |
| 20260904140041 | 67 | 153 | 13.0 | 20.0 | 0.00 | 0.00 | 0.00 | 32 | 1001.9 |
| 20260904135541 | 67 | 143 | 12.0 | 19.0 | 0.00 | 0.00 | 0.00 | 30 | 1001.8 |
| 20260904135041 | 66 | 136 | 12.0 | 19.0 | 0.00 | 0.00 | 0.00 | 32 | 1001.7 |
| 20260904134539 | 65 | 145 | 14.0 | 20.0 | 0.00 | 0.00 | 0.00 | 32 | 1001.7 |
| 20260904134038 | 64 | 131 | 13.0 | 19.0 | 0.00 | 0.00 | 0.00 | 33 | 1001.7 |
| 20260904133541 | 64 | 124 | 15.0 | 19.0 | 0.00 | 0.00 | 0.00 | 32 | 1001.5 |
| 20260904133038 | 63 | 136 | 12.0 | 17.0 | 0.00 | 0.00 | 0.00 | 31 | 1001.5 |
| 20260904132537 | 63 | 151 | 10.0 | 20.0 | 0.00 | 0.00 | 0.00 | 32 | 1001.5 |
| 20260904132038 | 63 | 124 | 14.0 | 20.0 | 0.00 | 0.00 | 0.00 | 32 | 1001.5 |
| 20260904131535 | 63 | 139 | 13.0 | 20.0 | 0.00 | 0.00 | 0.00 | 33 | 1001.5 |
| 20260904131034 | 63 | 126 | 10.0 | 14.0 | 0.00 | 0.00 | 0.00 | 33 | 1001.4 |
| 20260904130533 | 63 | 163 | 9.0 | 16.0 | 0.00 | 0.00 | 0.00 | 31 | 1001.4 |
| 20260904130032 | 63 | 153 | 10.0 | 15.0 | 0.00 | 0.00 | 0.00 | 31 | 1001.4 |
| 20260904125531 | 64 | 143 | 11.0 | 15.0 | 0.00 | 0.00 | 0.00 | 31 | 1001.3 |
| 20260904125030 | 65 | 131 | 11.0 | 18.0 | 0.00 | 0.00 | 0.00 | 30 | 1001.3 |
| 20260904124529 | 65 | 170 | 13.0 | 20.0 | 0.00 | 0.00 | 0.00 | 30 | 1001.3 |
| 20260904124027 | 65 | 130 | 13.0 | 20.0 | 0.00 | 0.00 | 0.00 | 30 | 1001.2 |
| 20260904123528 | 66 | 134 | 12.0 | 22.0 | 0.00 | 0.00 | 0.00 | 29 | 1001.1 |
| 20260904123028 | 67 | 133 | 13.0 | 22.0 | 0.00 | 0.00 | 0.00 | 29 | 1001.1 |
| 20260904122530 | 67 | 110 | 14.0 | 22.0 | 0.00 | 0.00 | 0.00 | 28 | 1001.1 |
| 20260904122026 | 68 | 131 | 15.0 | 22.0 | 0.00 | 0.00 | 0.00 | 28 | 1001.0 |
| 20260904121526 | 67 | 134 | 13.0 | 20.0 | 0.00 | 0.00 | 0.00 | 29 | 1001.0 |
| 20260904121027 | 66 | 148 | 13.0 | 24.0 | 0.00 | 0.00 | 0.00 | 30 | 1000.9 |
| 20260904120524 | 65 | 208 | 13.0 | 18.0 | 0.00 | 0.00 | 0.00 | 29 | 1001.0 |
| 20260904120024 | 65 | 154 | 12.0 | 18.0 | 0.00 | 0.00 | 0.00 | 29 | 1001.1 |
| 20260904115523 | 65 | 151 | 11.0 | 18.0 | 0.00 | 0.00 | 0.00 | 29 | 1001.2 |
| 20260904115023 | 64 | 161 | 12.0 | 16.0 | 0.00 | 0.00 | 0.00 | 29 | 1001.2 |
| 20260904114521 | 65 | 147 | 10.0 | 17.0 | 0.00 | 0.00 | 0.00 | 29 | 1001.2 |
| 20260904114021 | 65 | 161 | 12.0 | 17.0 | 0.00 | 0.00 | 0.00 | 29 | 1001.2 |
| 20260904113521 | 65 | 145 | 11.0 | 17.0 | 0.00 | 0.00 | 0.00 | 29 | 1001.2 |
| 20260904113020 | 65 | 149 | 10.0 | 17.0 | 0.00 | 0.00 | 0.00 | 28 | 1001.1 |
| 20260904112517 | 66 | 160 | 10.0 | 16.0 | 0.00 | 0.00 | 0.00 | 27 | 1001.2 |
| 20260904112017 | 67 | 142 | 13.0 | 23.0 | 0.00 | 0.00 | 0.00 | 27 | 1001.2 |
| 20260904111516 | 67 | 155 | 12.0 | 23.0 | 0.00 | 0.00 | 0.00 | 26 | 1001.1 |
| 20260904111016 | 67 | 145 | 13.0 | 19.0 | 0.00 | 0.00 | 0.00 | 27 | 1001.1 |
| 20260904110515 | 67 | 161 | 13.0 | 21.0 | 0.00 | 0.00 | 0.00 | 27 | 1001.2 |
| 20260904110015 | 68 | 166 | 14.0 | 21.0 | 0.00 | 0.00 | 0.00 | 26 | 1001.3 |
| 20260904105515 | 69 | 142 | 12.0 | 29.0 | 0.00 | 0.00 | 0.00 | 26 | 1001.1 |
| 20260904105014 | 69 | 148 | 15.0 | 25.0 | 0.00 | 0.00 | 0.00 | 26 | 1001.2 |
| 20260904104514 | 69 | 147 | 15.0 | 21.0 | 0.00 | 0.00 | 0.00 | 27 | 1001.1 |
| 20260904104013 | 69 | 152 | 13.0 | 22.0 | 0.00 | 0.00 | 0.00 | 27 | 1001.1 |
| 20260904103513 | 68 | 142 | 17.0 | 27.0 | 0.00 | 0.00 | 0.00 | 25 | 1001.1 |
| 20260904103013 | 69 | 165 | 15.0 | 27.0 | 0.00 | 0.00 | 0.00 | 26 | 1001.1 |
| 20260904102512 | 69 | 129 | 18.0 | 25.0 | 0.00 | 0.00 | 0.00 | 26 | 1001.2 |
| 20260904102013 | 70 | 142 | 14.0 | 21.0 | 0.00 | 0.00 | 0.00 | 25 | 1001.2 |
| 20260904101512 | 69 | 136 | 12.0 | 23.0 | 0.00 | 0.00 | 0.00 | 26 | 1001.1 |
| 20260904101012 | 69 | 128 | 14.0 | 25.0 | 0.00 | 0.00 | 0.00 | 25 | 1001.1 |
| 20260904100512 | 70 | 170 | 10.0 | 25.0 | 0.00 | 0.00 | 0.00 | 24 | 1001.1 |
| 20260904100012 | 70 | 174 | 13.0 | 21.0 | 0.00 | 0.00 | 0.00 | 24 | 1001.1 |
| 20260904095512 | 69 | 151 | 14.0 | 19.0 | 0.00 | 0.00 | 0.00 | 26 | 1001.1 |
| 20260904095013 | 69 | 147 | 13.0 | 19.0 | 0.00 | 0.00 | 0.00 | 25 | 1001.1 |
| 20260904094514 | 69 | 165 | 14.0 | 19.0 | 0.00 | 0.00 | 0.00 | 25 | 1001.1 |
| 20260904094010 | 69 | 156 | 12.0 | 20.0 | 0.00 | 0.00 | 0.00 | 25 | 1001.2 |
| 20260904093510 | 69 | 138 | 13.0 | 21.0 | 0.00 | 0.00 | 0.00 | 25 | 1001.2 |
| 20260904093009 | 69 | 142 | 12.0 | 20.0 | 0.00 | 0.00 | 0.00 | 26 | 1001.1 |
| 20260904092509 | 68 | 130 | 13.0 | 19.0 | 0.00 | 0.00 | 0.00 | 26 | 1001.2 |
| 20260904092008 | 68 | 168 | 12.0 | 17.0 | 0.00 | 0.00 | 0.00 | 26 | 1001.2 |
| 20260904091523 | 69 | 138 | 11.0 | 17.0 | 0.00 | 0.00 | 0.00 | 26 | 1001.1 |
| 20260904091007 | 69 | 158 | 13.0 | 20.0 | 0.00 | 0.00 | 0.00 | 24 | 1001.1 |
| 20260904090509 | 69 | 154 | 16.0 | 21.0 | 0.00 | 0.00 | 0.00 | 25 | 1001.1 |
| 20260904090013 | 69 | 135 | 15.0 | 20.0 | 0.00 | 0.00 | 0.00 | 25 | 1001.1 |
| 20260904085507 | 70 | 124 | 14.0 | 25.0 | 0.00 | 0.00 | 0.00 | 25 | 1001.2 |
| 20260904085011 | 70 | 132 | 18.0 | 25.0 | 0.00 | 0.00 | 0.00 | 24 | 1001.1 |
| 20260904084610 | 70 | 132 | 15.0 | 24.0 | 0.00 | 0.00 | 0.00 | 24 | 1001.1 |
| 20260904084008 | 71 | 130 | 17.0 | 24.0 | 0.00 | 0.00 | 0.00 | 23 | 1001.1 |
| 20260904083504 | 71 | 128 | 15.0 | 26.0 | 0.00 | 0.00 | 0.00 | 23 | 1001.0 |
| 20260904083009 | 72 | 138 | 16.0 | 27.0 | 0.00 | 0.00 | 0.00 | 23 | 1001.0 |
| 20260904082503 | 72 | 119 | 13.0 | 27.0 | 0.00 | 0.00 | 0.00 | 22 | 1000.8 |
| 20260904082005 | 72 | 122 | 18.0 | 29.0 | 0.00 | 0.00 | 0.00 | 22 | 1000.9 |
| 20260904081505 | 71 | 113 | 22.0 | 29.0 | 0.00 | 0.00 | 0.00 | 22 | 1000.8 |
| 20260904081002 | 70 | 116 | 14.0 | 22.0 | 0.00 | 0.00 | 0.00 | 24 | 1000.9 |
| 20260904080514 | 71 | 140 | 15.0 | 24.0 | 0.00 | 0.00 | 0.00 | 23 | 1001.0 |
| 20260904080003 | 71 | 143 | 14.0 | 25.0 | 0.00 | 0.00 | 0.00 | 23 | 1000.9 |
| 20260904075501 | 71 | 153 | 17.0 | 26.0 | 0.00 | 0.00 | 0.00 | 23 | 1000.9 |
| 20260904075102 | 71 | 146 | 16.0 | 26.0 | 0.00 | 0.00 | 0.00 | 23 | 1001.0 |
| 20260904074609 | 71 | 120 | 16.0 | 26.0 | 0.00 | 0.00 | 0.00 | 24 | 1000.8 |
| 20260904074059 | 70 | 160 | 19.0 | 24.0 | 0.00 | 0.00 | 0.00 | 23 | 1000.8 |
| 20260904073557 | 70 | 134 | 16.0 | 25.0 | 0.00 | 0.00 | 0.00 | 24 | 1000.8 |
| 20260904073057 | 69 | 146 | 14.0 | 22.0 | 0.00 | 0.00 | 0.00 | 25 | 1000.8 |
| 20260904072556 | 69 | 127 | 15.0 | 22.0 | 0.00 | 0.00 | 0.00 | 25 | 1000.9 |
| 20260904072055 | 69 | 143 | 15.0 | 21.0 | 0.00 | 0.00 | 0.00 | 25 | 1000.8 |
| 20260904071623 | 68 | 127 | 14.0 | 19.0 | 0.00 | 0.00 | 0.00 | 27 | 1000.7 |
| 20260904071054 | 69 | 153 | 11.0 | 25.0 | 0.00 | 0.00 | 0.00 | 26 | 1000.6 |
| 20260904070554 | 70 | 151 | 17.0 | 25.0 | 0.00 | 0.00 | 0.00 | 25 | 1000.5 |
| 20260904070106 | 70 | 143 | 16.0 | 22.0 | 0.00 | 0.00 | 0.00 | 25 | 1000.5 |
| 20260904065551 | 71 | 137 | 13.0 | 26.0 | 0.00 | 0.00 | 0.00 | 24 | 1000.5 |
| 20260904065051 | 71 | 138 | 17.0 | 26.0 | 0.00 | 0.00 | 0.00 | 24 | 1000.5 |
| 20260904064604 | 72 | 138 | 16.0 | 22.0 | 0.00 | 0.00 | 0.00 | 24 | 1000.5 |
| 20260904064052 | 71 | 136 | 15.0 | 20.0 | 0.00 | 0.00 | 0.00 | 23 | 1000.6 |
| 20260904063550 | 72 | 164 | 10.0 | 23.0 | 0.00 | 0.00 | 0.00 | 22 | 1000.6 |
| 20260904063054 | 72 | 138 | 15.0 | 23.0 | 0.00 | 0.00 | 0.00 | 22 | 1000.6 |
| 20260904062551 | 72 | 136 | 14.0 | 22.0 | 0.00 | 0.00 | 0.00 | 23 | 1000.6 |
| 20260904062047 | 72 | 153 | 14.0 | 22.0 | 0.00 | 0.00 | 0.00 | 23 | 1000.5 |
| 20260904061547 | 72 | 165 | 14.0 | 21.0 | 0.00 | 0.00 | 0.00 | 23 | 1000.5 |
| 20260904061047 | 72 | 134 | 15.0 | 21.0 | 0.00 | 0.00 | 0.00 | 23 | 1000.6 |
| 20260904060545 | 71 | 144 | 13.0 | 20.0 | 0.00 | 0.00 | 0.00 | 24 | 1000.5 |
| 20260904060044 | 70 | 153 | 14.0 | 19.0 | 0.00 | 0.00 | 0.00 | 27 | 1000.5 |
| 20260904055544 | 69 | 145 | 12.0 | 20.0 | 0.00 | 0.00 | 0.00 | 26 | 1000.6 |
| 20260904055040 | 71 | 143 | 12.0 | 28.0 | 0.00 | 0.00 | 0.00 | 26 | 1000.5 |
| 20260904054539 | 72 | 143 | 17.0 | 28.0 | 0.00 | 0.00 | 0.00 | 24 | 1000.6 |
| 20260904054038 | 72 | 126 | 14.0 | 26.0 | 0.00 | 0.00 | 0.00 | 26 | 1000.5 |
| 20260904053536 | 72 | 129 | 19.0 | 26.0 | 0.00 | 0.00 | 0.00 | 25 | 1000.6 |
| 20260904053042 | 72 | 128 | 15.0 | 22.0 | 0.00 | 0.00 | 0.00 | 26 | 1000.5 |
| 20260904052537 | 72 | 134 | 15.0 | 28.0 | 0.00 | 0.00 | 0.00 | 26 | 1000.5 |
| 20260904052036 | 73 | 150 | 18.0 | 28.0 | 0.00 | 0.00 | 0.00 | 26 | 1000.4 |
| 20260904051535 | 72 | 145 | 14.0 | 20.0 | 0.00 | 0.00 | 0.00 | 26 | 1000.4 |
| 20260904051034 | 73 | 170 | 12.0 | 26.0 | 0.00 | 0.00 | 0.00 | 24 | 1000.5 |
| 20260904050532 | 73 | 136 | 17.0 | 26.0 | 0.00 | 0.00 | 0.00 | 25 | 1000.5 |
| 20260904050033 | 74 | 160 | 17.0 | 33.0 | 0.00 | 0.00 | 0.00 | 24 | 1000.5 |
| 20260904045529 | 74 | 127 | 17.0 | 25.0 | 0.00 | 0.00 | 0.00 | 24 | 1000.5 |
| 20260904045028 | 74 | 136 | 16.0 | 28.0 | 0.00 | 0.00 | 0.00 | 25 | 1000.5 |
| 20260904044526 | 74 | 145 | 16.0 | 29.0 | 0.00 | 0.00 | 0.00 | 25 | 1000.5 |
| 20260904044024 | 74 | 124 | 19.0 | 29.0 | 0.00 | 0.00 | 0.00 | 26 | 1000.6 |
| 20260904043523 | 74 | 97 | 17.0 | 24.0 | 0.00 | 0.00 | 0.00 | 27 | 1000.5 |
| 20260904043021 | 74 | 144 | 15.0 | 29.0 | 0.00 | 0.00 | 0.00 | 25 | 1000.6 |
| 20260904042521 | 74 | 138 | 16.0 | 23.0 | 0.00 | 0.00 | 0.00 | 25 | 1000.6 |
| 20260904042020 | 74 | 134 | 14.0 | 23.0 | 0.00 | 0.00 | 0.00 | 26 | 1000.5 |
| 20260904041524 | 74 | 113 | 17.0 | 22.0 | 0.00 | 0.00 | 0.00 | 25 | 1000.5 |
| 20260904041015 | 74 | 149 | 15.0 | 25.0 | 0.00 | 0.00 | 0.00 | 25 | 1000.4 |
| 20260904040518 | 75 | 134 | 16.0 | 30.0 | 0.00 | 0.00 | 0.00 | 25 | 1000.4 |
| 20260904040013 | 75 | 127 | 18.0 | 28.0 | 0.00 | 0.00 | 0.00 | 25 | 1000.4 |
| 20260904035512 | 76 | 159 | 14.0 | 28.0 | 0.00 | 0.00 | 0.00 | 24 | 1000.3 |
| 20260904035010 | 75 | 115 | 20.0 | 28.0 | 0.00 | 0.00 | 0.00 | 25 | 1000.1 |
| 20260904034508 | 74 | 95 | 16.0 | 23.0 | 0.00 | 0.00 | 0.00 | 25 | 1000.2 |
| 20260904034007 | 74 | 150 | 12.0 | 21.0 | 0.00 | 0.00 | 0.00 | 25 | 1000.3 |
| 20260904033506 | 75 | 145 | 14.0 | 20.0 | 0.00 | 0.00 | 0.00 | 24 | 1000.2 |
| 20260904033004 | 75 | 127 | 15.0 | 21.0 | 0.00 | 0.00 | 0.00 | 24 | 1000.2 |
| 20260904032502 | 75 | 137 | 14.0 | 21.0 | 0.00 | 0.00 | 0.00 | 24 | 1000.3 |
| 20260904032001 | 75 | 152 | 15.0 | 24.0 | 0.00 | 0.00 | 0.00 | 23 | 1000.3 |
| 20260904031611 | 75 | 143 | 14.0 | 24.0 | 0.00 | 0.00 | 0.00 | 23 | 1000.2 |
| 20260904031058 | 76 | 141 | 15.0 | 26.0 | 0.00 | 0.00 | 0.00 | 24 | 1000.1 |
| 20260904030557 | 76 | 138 | 15.0 | 26.0 | 0.00 | 0.00 | 0.00 | 24 | 1000.1 |
| 20260904030055 | 76 | 136 | 17.0 | 29.0 | 0.00 | 0.00 | 0.00 | 23 | 1000.1 |
| 20260904025554 | 76 | 126 | 20.0 | 29.0 | 0.00 | 0.00 | 0.00 | 23 | 1000.1 |
| 20260904025053 | 75 | 137 | 17.0 | 22.0 | 0.00 | 0.00 | 0.00 | 24 | 1000.0 |
| 20260904024550 | 75 | 118 | 17.0 | 22.0 | 0.00 | 0.00 | 0.00 | 24 | 999.9 |
| 20260904024051 | 75 | 138 | 12.0 | 18.0 | 0.00 | 0.00 | 0.00 | 25 | 999.9 |
| 20260904023547 | 75 | 113 | 13.0 | 18.0 | 0.00 | 0.00 | 0.00 | 25 | 999.9 |
| 20260904023046 | 74 | 124 | 14.0 | 20.0 | 0.00 | 0.00 | 0.00 | 25 | 1000.1 |
| 20260904022545 | 74 | 155 | 11.0 | 15.0 | 0.00 | 0.00 | 0.00 | 24 | 1000.0 |
| 20260904022044 | 76 | 152 | 11.0 | 21.0 | 0.00 | 0.00 | 0.00 | 23 | 999.9 |
| 20260904021549 | 76 | 176 | 16.0 | 24.0 | 0.00 | 0.00 | 0.00 | 22 | 1000.0 |
| 20260904021041 | 76 | 185 | 17.0 | 24.0 | 0.00 | 0.00 | 0.00 | 22 | 999.8 |
| 20260904020540 | 76 | 197 | 16.0 | 25.0 | 0.00 | 0.00 | 0.00 | 22 | 999.9 |
| 20260904020042 | 76 | 194 | 16.0 | 25.0 | 0.00 | 0.00 | 0.00 | 22 | 1000.0 |
| 20260904015536 | 76 | 176 | 11.0 | 19.0 | 0.00 | 0.00 | 0.00 | 22 | 999.9 |
| 20260904015035 | 77 | 157 | 13.0 | 24.0 | 0.00 | 0.00 | 0.00 | 22 | 1000.0 |
| 20260904014533 | 77 | 155 | 14.0 | 24.0 | 0.00 | 0.00 | 0.00 | 21 | 1000.1 |
| 20260904014032 | 77 | 161 | 14.0 | 20.0 | 0.00 | 0.00 | 0.00 | 21 | 1000.1 |
| 20260904013534 | 78 | 161 | 13.0 | 24.0 | 0.00 | 0.00 | 0.00 | 21 | 1000.0 |
| 20260904013029 | 79 | 165 | 16.0 | 24.0 | 0.00 | 0.00 | 0.00 | 21 | 1000.1 |
| 20260904012527 | 79 | 158 | 18.0 | 28.0 | 0.00 | 0.00 | 0.00 | 21 | 1000.1 |
| 20260904012026 | 79 | 142 | 20.0 | 28.0 | 0.00 | 0.00 | 0.00 | 21 | 1000.1 |
| 20260904011525 | 80 | 168 | 16.0 | 22.0 | 0.00 | 0.00 | 0.00 | 20 | 1000.1 |
| 20260904011024 | 80 | 202 | 18.0 | 22.0 | 0.00 | 0.00 | 0.00 | 21 | 1000.2 |
| 20260904010524 | 80 | 190 | 15.0 | 30.0 | 0.00 | 0.00 | 0.00 | 20 | 1000.1 |
| 20260904010022 | 80 | 174 | 19.0 | 30.0 | 0.00 | 0.00 | 0.00 | 20 | 1000.2 |
| 20260904005519 | 80 | 145 | 15.0 | 24.0 | 0.00 | 0.00 | 0.00 | 20 | 1000.2 |
| 20260904005020 | 80 | 191 | 16.0 | 25.0 | 0.00 | 0.00 | 0.00 | 20 | 1000.3 |
| 20260904004515 | 81 | 191 | 18.0 | 25.0 | 0.00 | 0.00 | 0.00 | 20 | 1000.3 |
| 20260904004013 | 81 | 165 | 16.0 | 31.0 | 0.00 | 0.00 | 0.00 | 20 | 1000.3 |
| 20260904003511 | 82 | 194 | 20.0 | 31.0 | 0.00 | 0.00 | 0.00 | 20 | 1000.4 |
| 20260904003011 | 82 | 163 | 16.0 | 25.0 | 0.00 | 0.00 | 0.00 | 20 | 1000.3 |
| 20260904002509 | 82 | 174 | 15.0 | 25.0 | 0.00 | 0.00 | 0.00 | 20 | 1000.3 |
| 20260904002007 | 82 | 177 | 18.0 | 30.0 | 0.00 | 0.00 | 0.00 | 20 | 1000.3 |
| 20260904001505 | 81 | 172 | 16.0 | 26.0 | 0.00 | 0.00 | 0.00 | 22 | 1000.3 |
| 20260904001005 | 81 | 153 | 13.0 | 23.0 | 0.00 | 0.00 | 0.00 | 22 | 1000.3 |
| 20260904000506 | 82 | 144 | 16.0 | 22.0 | 0.00 | 0.00 | 0.00 | 22 | 1000.3 |
| 20260904000002 | 81 | 147 | 13.0 | 21.0 | 0.00 | 0.00 | 0.00 | 21 | 1000.4 |
| 20260903235603 | 81 | 142 | 16.0 | 22.0 | 0.00 | 0.00 | 0.00 | 22 | 1000.4 |
| 20260903235058 | 82 | 157 | 15.0 | 22.0 | 0.00 | 0.00 | 0.00 | 20 | 1000.5 |
| 20260903234557 | 83 | 167 | 16.0 | 23.0 | 0.00 | 0.00 | 0.00 | 20 | 1000.5 |
| 20260903234055 | 83 | 151 | 18.0 | 22.0 | 0.00 | 0.00 | 0.00 | 20 | 1000.6 |
| 20260903233554 | 83 | 140 | 14.0 | 25.0 | 0.00 | 0.00 | 0.00 | 20 | 1000.5 |
| 20260903233053 | 83 | 167 | 16.0 | 25.0 | 0.00 | 0.00 | 0.00 | 19 | 1000.7 |
| 20260903232551 | 83 | 162 | 13.0 | 19.0 | 0.00 | 0.00 | 0.00 | 21 | 1000.7 |
| 20260903232049 | 81 | 147 | 15.0 | 26.0 | 0.00 | 0.00 | 0.00 | 21 | 1000.7 |
| 20260903231554 | 80 | 155 | 16.0 | 28.0 | 0.00 | 0.00 | 0.00 | 21 | 1000.9 |
| 20260903231046 | 80 | 144 | 14.0 | 22.0 | 0.00 | 0.00 | 0.00 | 21 | 1000.8 |
| 20260903230547 | 80 | 184 | 14.0 | 22.0 | 0.00 | 0.00 | 0.00 | 20 | 1000.9 |
| 20260903230048 | 80 | 190 | 16.0 | 22.0 | 0.00 | 0.00 | 0.00 | 21 | 1001.1 |
| 20260903225543 | 80 | 145 | 16.0 | 24.0 | 0.00 | 0.00 | 0.00 | 21 | 1001.0 |
| 20260903225040 | 81 | 160 | 17.0 | 26.0 | 0.00 | 0.00 | 0.00 | 20 | 1001.3 |
| 20260903224544 | 81 | 168 | 14.0 | 26.0 | 0.00 | 0.00 | 0.00 | 20 | 1001.4 |
| 20260903224042 | 82 | 169 | 13.0 | 26.0 | 0.00 | 0.00 | 0.00 | 21 | 1001.4 |
| 20260903223536 | 81 | 190 | 15.0 | 20.0 | 0.00 | 0.00 | 0.00 | 22 | 1001.4 |
| 20260903223036 | 81 | 161 | 16.0 | 23.0 | 0.00 | 0.00 | 0.00 | 21 | 1001.4 |
| 20260903222535 | 81 | 172 | 11.0 | 21.0 | 0.00 | 0.00 | 0.00 | 21 | 1001.6 |
| 20260903222032 | 82 | 153 | 14.0 | 23.0 | 0.00 | 0.00 | 0.00 | 21 | 1001.7 |
| 20260903221544 | 82 | 163 | 15.0 | 23.0 | 0.00 | 0.00 | 0.00 | 21 | 1001.9 |
| 20260903221032 | 81 | 195 | 12.0 | 23.0 | 0.00 | 0.00 | 0.00 | 20 | 1001.8 |
| 20260903220527 | 82 | 192 | 15.0 | 24.0 | 0.00 | 0.00 | 0.00 | 21 | 1001.8 |
| 20260903220026 | 81 | 182 | 10.0 | 21.0 | 0.00 | 0.00 | 0.00 | 20 | 1001.9 |
| 20260903215526 | 81 | 184 | 14.0 | 22.0 | 0.00 | 0.00 | 0.00 | 19 | 1001.9 |
| 20260903215023 | 82 | 181 | 18.0 | 22.0 | 0.00 | 0.00 | 0.00 | 20 | 1002.0 |
| 20260903214522 | 82 | 167 | 13.0 | 24.0 | 0.00 | 0.00 | 0.00 | 20 | 1002.0 |
| 20260903214020 | 81 | 178 | 15.0 | 24.0 | 0.00 | 0.00 | 0.00 | 19 | 1002.1 |
| 20260903213518 | 81 | 138 | 15.0 | 22.0 | 0.00 | 0.00 | 0.00 | 19 | 1002.1 |
| 20260903213021 | 80 | 182 | 12.0 | 23.0 | 0.00 | 0.00 | 0.00 | 20 | 1001.9 |
| 20260903212515 | 80 | 179 | 15.0 | 23.0 | 0.00 | 0.00 | 0.00 | 20 | 1002.2 |
| 20260903212016 | 81 | 149 | 15.0 | 21.0 | 0.00 | 0.00 | 0.00 | 21 | 1002.1 |
| 20260903211512 | 81 | 185 | 11.0 | 17.0 | 0.00 | 0.00 | 0.00 | 21 | 1002.2 |
| 20260903211014 | 81 | 151 | 10.0 | 19.0 | 0.00 | 0.00 | 0.00 | 21 | 1002.3 |
| 20260903210509 | 80 | 152 | 14.0 | 26.0 | 0.00 | 0.00 | 0.00 | 21 | 1002.4 |
| 20260903210009 | 80 | 159 | 18.0 | 28.0 | 0.00 | 0.00 | 0.00 | 21 | 1002.5 |
| 20260903205506 | 80 | 132 | 14.0 | 24.0 | 0.00 | 0.00 | 0.00 | 21 | 1002.5 |
| 20260903205005 | 80 | 164 | 13.0 | 20.0 | 0.00 | 0.00 | 0.00 | 23 | 1002.6 |
| 20260903204506 | 80 | 119 | 11.0 | 20.0 | 0.00 | 0.00 | 0.00 | 23 | 1002.8 |
| 20260903204000 | 80 | 156 | 11.0 | 16.0 | 0.00 | 0.00 | 0.00 | 22 | 1002.9 |
| 20260903203601 | 79 | 163 | 7.0 | 19.0 | 0.00 | 0.00 | 0.00 | 23 | 1003.0 |
| 20260903203059 | 80 | 135 | 9.0 | 19.0 | 0.00 | 0.00 | 0.00 | 22 | 1003.0 |
| 20260903202557 | 79 | 188 | 11.0 | 23.0 | 0.00 | 0.00 | 0.00 | 21 | 1003.1 |
| 20260903202056 | 79 | 129 | 15.0 | 23.0 | 0.00 | 0.00 | 0.00 | 22 | 1003.2 |
| 20260903201554 | 80 | 195 | 10.0 | 24.0 | 0.00 | 0.00 | 0.00 | 21 | 1003.2 |
| 20260903201052 | 79 | 147 | 13.0 | 24.0 | 0.00 | 0.00 | 0.00 | 21 | 1003.4 |
| 20260903200552 | 79 | 128 | 14.0 | 22.0 | 0.00 | 0.00 | 0.00 | 21 | 1003.5 |
| 20260903200051 | 80 | 161 | 13.0 | 23.0 | 0.00 | 0.00 | 0.00 | 21 | 1003.5 |
| 20260903195548 | 79 | 151 | 14.0 | 27.0 | 0.00 | 0.00 | 0.00 | 20 | 1003.6 |
| 20260903195047 | 79 | 136 | 14.0 | 24.0 | 0.00 | 0.00 | 0.00 | 21 | 1003.6 |
| 20260903194546 | 79 | 138 | 16.0 | 24.0 | 0.00 | 0.00 | 0.00 | 21 | 1003.6 |
| 20260903194046 | 79 | 126 | 12.0 | 23.0 | 0.00 | 0.00 | 0.00 | 20 | 1003.8 |
| 20260903193542 | 78 | 154 | 16.0 | 23.0 | 0.00 | 0.00 | 0.00 | 22 | 1003.8 |
| 20260903193041 | 79 | 176 | 14.0 | 22.0 | 0.00 | 0.00 | 0.00 | 22 | 1003.8 |
| 20260903192540 | 79 | 155 | 12.0 | 21.0 | 0.00 | 0.00 | 0.00 | 20 | 1004.0 |
| 20260903192038 | 78 | 153 | 10.0 | 21.0 | 0.00 | 0.00 | 0.00 | 21 | 1003.9 |
| 20260903191539 | 78 | 140 | 8.0 | 22.0 | 0.00 | 0.00 | 0.00 | 21 | 1004.0 |
| 20260903191035 | 79 | 198 | 12.0 | 22.0 | 0.00 | 0.00 | 0.00 | 20 | 1004.1 |
| 20260903190536 | 78 | 151 | 14.0 | 23.0 | 0.00 | 0.00 | 0.00 | 21 | 1004.3 |
| 20260903190032 | 78 | 157 | 12.0 | 20.0 | 0.00 | 0.00 | 0.00 | 21 | 1004.3 |
| 20260903185530 | 78 | 200 | 12.0 | 19.0 | 0.00 | 0.00 | 0.00 | 20 | 1004.3 |
| 20260903185031 | 78 | 146 | 12.0 | 19.0 | 0.00 | 0.00 | 0.00 | 21 | 1004.4 |
| 20260903184527 | 78 | 166 | 15.0 | 18.0 | 0.00 | 0.00 | 0.00 | 20 | 1004.4 |
| 20260903184026 | 78 | 165 | 13.0 | 19.0 | 0.00 | 0.00 | 0.00 | 21 | 1004.5 |
| 20260903183525 | 78 | 150 | 14.0 | 20.0 | 0.00 | 0.00 | 0.00 | 21 | 1004.6 |
| 20260903183023 | 78 | 178 | 11.0 | 19.0 | 0.00 | 0.00 | 0.00 | 20 | 1004.5 |
| 20260903182521 | 77 | 127 | 11.0 | 21.0 | 0.00 | 0.00 | 0.00 | 22 | 1004.6 |
| 20260903182020 | 77 | 159 | 14.0 | 21.0 | 0.00 | 0.00 | 0.00 | 20 | 1004.8 |
| 20260903181518 | 77 | 226 | 14.0 | 23.0 | 0.00 | 0.00 | 0.00 | 21 | 1004.8 |
| 20260903181016 | 77 | 144 | 15.0 | 23.0 | 0.00 | 0.00 | 0.00 | 21 | 1004.9 |
| 20260903180518 | 77 | 140 | 17.0 | 23.0 | 0.00 | 0.00 | 0.00 | 21 | 1004.9 |
| 20260903180030 | 77 | 153 | 11.0 | 17.0 | 0.00 | 0.00 | 0.00 | 21 | 1004.9 |
| 20260903175512 | 78 | 172 | 10.0 | 23.0 | 0.00 | 0.00 | 0.00 | 21 | 1005.0 |
| 20260903175011 | 77 | 147 | 7.0 | 16.0 | 0.00 | 0.00 | 0.00 | 20 | 1004.9 |
| 20260903174509 | 77 | 203 | 11.0 | 17.0 | 0.00 | 0.00 | 0.00 | 20 | 1005.0 |
| 20260903174007 | 76 | 200 | 9.0 | 15.0 | 0.00 | 0.00 | 0.00 | 20 | 1005.1 |
| 20260903173506 | 76 | 221 | 6.0 | 17.0 | 0.00 | 0.00 | 0.00 | 20 | 1005.1 |
| 20260903173004 | 76 | 211 | 10.0 | 17.0 | 0.00 | 0.00 | 0.00 | 22 | 1005.0 |
| 20260903172503 | 76 | 253 | 10.0 | 16.0 | 0.00 | 0.00 | 0.00 | 21 | 1005.1 |
| 20260903172002 | 76 | 207 | 7.0 | 14.0 | 0.00 | 0.00 | 0.00 | 20 | 1005.2 |
| 20260903171600 | 75 | 192 | 6.0 | 12.0 | 0.00 | 0.00 | 0.00 | 20 | 1005.2 |